DW9987 Weather Reports


Display with metric or nautical units.
time (UTC)temp
F
wind
direction
speed
MPH
gust
MPH
rain 1hr
in
rain 24hr
in
rain mn
in
humidity
%
barometer
mb
20260906203047 82 160 0.0 3.0 0.00 0.00 0.00 58 1017.8
20260906201613 82 329 0.0 4.0 0.00 0.00 0.00 56 1017.8
20260906200046 82 355 0.0 6.0 0.00 0.00 0.00 55 1017.8
20260906194554 83 81 0.0 7.0 0.00 0.00 0.00 55 1017.8
20260906193046 82 195 0.0 5.0 0.00 0.00 0.00 57 1017.7
20260906191540 82 215 0.0 3.0 0.00 0.00 0.00 57 1017.9
20260906190040 82 209 0.0 6.0 0.00 0.00 0.00 55 1017.9
20260906184539 82 253 0.0 6.0 0.00 0.00 0.00 57 1017.8
20260906183039 82 286 1.0 4.0 0.00 0.00 0.00 57 1018.1
20260906181545 82 278 0.0 2.0 0.00 0.00 0.00 58 1018.1
20260906180040 81 258 0.0 9.0 0.00 0.00 0.00 58 1018.1
20260906174535 82 327 0.0 3.0 0.00 0.00 0.00 58 1018.3
20260906173034 81 254 0.0 3.0 0.00 0.00 0.00 63 1018.5
20260906171532 81 167 0.0 3.0 0.00 0.00 0.00 60 1018.7
20260906170030 80 94 0.0 6.0 0.00 0.00 0.00 67 1018.8
20260906164528 80 318 0.0 6.0 0.00 0.00 0.00 65 1018.8
20260906163042 80 308 0.0 5.0 0.00 0.00 0.00 67 1018.9
20260906161526 79 192 0.0 7.0 0.00 0.00 0.00 68 1018.9
20260906160022 78 229 2.0 7.0 0.00 0.00 0.00 72 1018.8
20260906154517 77 176 0.0 4.0 0.00 0.00 0.00 75 1018.5
20260906153014 76 101 1.0 5.0 0.00 0.00 0.00 77 1018.3
20260906151514 76 163 0.0 4.0 0.00 0.00 0.00 79 1018.4
20260906150015 75 298 0.0 4.0 0.00 0.00 0.00 83 1018.5
20260906144508 74 159 0.0 3.0 0.00 0.00 0.00 85 1018.6
20260906143006 75 208 0.0 3.0 0.00 0.00 0.00 86 1018.6
20260906141504 74 320 0.0 4.0 0.00 0.00 0.00 88 1018.5
20260906140004 73 300 0.0 4.0 0.00 0.00 0.00 92 1018.3
20260906134503 71 360 0.0 5.0 0.00 0.00 0.00 94 1018.5
20260906133102 70 340 0.0 3.0 0.00 0.00 0.00 95 1018.5
20260906131559 69 5 0.0 3.0 0.00 0.00 0.00 95 1018.4
20260906130105 68 360 0.0 0.0 0.00 0.00 0.00 95 1018.2
20260906124605 68 360 0.0 1.0 0.00 0.00 0.00 95 1018.2
20260906123055 67 5 0.0 0.0 0.00 0.00 0.00 95 1018.1
20260906121600 67 5 0.0 0.0 0.00 0.00 0.00 95 1018.0
20260906120052 67 5 0.0 0.0 0.00 0.00 0.00 95 1017.8
20260906114554 67 5 0.0 0.0 0.00 0.00 0.00 95 1017.4
20260906113047 67 5 0.0 0.0 0.00 0.00 0.00 94 1017.2
20260906111555 67 5 0.0 0.0 0.00 0.00 0.00 94 1017.0
20260906110043 67 5 0.0 0.0 0.00 0.00 0.00 94 1016.9
20260906104540 68 5 0.0 0.0 0.00 0.00 0.00 94 1016.6
20260906103039 68 5 0.0 4.0 0.00 0.00 0.00 94 1016.6
20260906101539 68 10 0.0 3.0 0.00 0.00 0.00 94 1016.4
20260906100042 68 11 0.0 4.0 0.00 0.00 0.00 94 1016.5
20260906094536 68 5 0.0 1.0 0.00 0.00 0.00 93 1016.1
20260906093047 69 5 0.0 2.0 0.00 0.00 0.00 93 1016.2
20260906091534 69 343 0.0 2.0 0.00 0.00 0.00 93 1016.2
20260906090033 69 343 0.0 0.0 0.00 0.00 0.00 93 1016.1
20260906084533 69 343 0.0 1.0 0.00 0.00 0.00 93 1016.1
20260906083032 69 348 0.0 3.0 0.00 0.00 0.00 92 1015.9
20260906081546 69 350 0.0 0.0 0.00 0.00 0.00 92 1016.1
20260906080029 69 349 0.0 2.0 0.00 0.00 0.00 92 1016.1
20260906074529 70 347 0.0 0.0 0.00 0.00 0.00 91 1016.2
20260906073045 70 347 0.0 0.0 0.00 0.00 0.00 91 1016.2
20260906071528 70 333 0.0 2.0 0.00 0.00 0.00 91 1016.3
20260906070036 70 338 0.0 0.0 0.00 0.00 0.00 90 1016.3
20260906064524 71 338 0.0 0.0 0.00 0.00 0.00 90 1016.3
20260906063022 71 338 0.0 0.0 0.00 0.00 0.00 89 1016.3
20260906061521 72 338 0.0 1.0 0.00 0.00 0.00 88 1016.5
20260906060017 72 348 0.0 3.0 0.00 0.00 0.00 87 1016.4
20260906054521 72 349 0.0 4.0 0.00 0.00 0.00 87 1016.1
20260906053013 73 355 1.0 7.0 0.00 0.00 0.00 86 1016.1
20260906051519 73 342 1.0 6.0 0.00 0.00 0.00 86 1016.0
20260906050010 73 5 0.0 2.0 0.00 0.00 0.00 86 1015.8
20260906044509 73 340 0.0 0.0 0.00 0.00 0.00 86 1015.7
20260906043007 73 344 0.0 0.0 0.00 0.00 0.00 86 1015.6
20260906041506 73 288 0.0 2.0 0.00 0.00 0.00 85 1015.4
20260906040004 73 344 0.0 4.0 0.00 0.00 0.00 85 1015.4
20260906034503 73 355 0.0 2.0 0.00 0.00 0.00 84 1015.2
20260906033003 73 338 0.0 4.0 0.00 0.00 0.00 84 1015.2
20260906031502 73 360 1.0 5.0 0.00 0.00 0.00 84 1015.1
20260906030002 73 299 1.0 6.0 0.00 0.00 0.00 84 1015.1
20260906024502 73 342 0.0 8.0 0.00 0.00 0.00 84 1015.1
20260906023000 73 317 1.0 5.0 0.00 0.00 0.00 85 1015.0
20260906021600 73 30 2.0 8.0 0.00 0.00 0.00 84 1015.1
20260906020059 73 31 1.0 7.0 0.00 0.00 0.00 84 1015.0
20260906014623 73 17 2.0 7.0 0.00 0.00 0.00 84 1014.9
20260906013058 73 47 2.0 8.0 0.00 0.00 0.00 85 1014.9
20260906011558 73 116 2.0 9.0 0.00 0.00 0.00 84 1014.7
20260906010051 74 343 3.0 10.0 0.00 0.00 0.00 82 1014.8
20260906004600 76 339 3.0 12.0 0.00 0.00 0.00 81 1014.6
20260906003052 76 330 1.0 9.0 0.00 0.00 0.00 81 1014.5
20260906001547 77 104 0.0 5.0 0.00 0.00 0.00 80 1014.3
20260906000047 78 47 0.0 6.0 0.00 0.00 0.00 79 1014.0
20260905234553 79 330 0.0 4.0 0.00 0.00 0.00 78 1013.5
20260905233044 80 340 0.0 2.0 0.00 0.00 0.00 78 1013.3
20260905231543 81 5 0.0 3.0 0.00 0.00 0.00 77 1013.6
20260905230044 81 5 1.0 6.0 0.00 0.00 0.00 75 1013.5
20260905224548 81 343 0.0 4.0 0.00 0.00 0.00 75 1013.3
20260905223041 82 355 0.0 3.0 0.00 0.00 0.00 76 1013.2
20260905221542 82 348 0.0 3.0 0.00 0.00 0.00 74 1013.2
20260905220040 83 319 1.0 7.0 0.00 0.00 0.00 73 1013.2
20260905214539 82 350 2.0 9.0 0.00 0.00 0.00 74 1013.2
20260905213039 82 14 2.0 8.0 0.00 0.00 0.00 75 1013.3
20260905211538 81 346 5.0 9.0 0.00 0.00 0.00 74 1013.2
20260905210038 82 17 4.0 10.0 0.00 0.00 0.00 74 1013.3
20260905204538 82 355 1.0 11.0 0.00 0.00 0.00 75 1013.3